Wetterdaten: Mittwoch, 22.07.2015
Datum Zeit Auen-Temp. Temp gefhlt Luftfeuchte Luftdruck Regen Wind Richtung Richtung Taupunkt Windben
22.07.2015 00:00 18,2 C 18,0 C 78 % 1012,4 hPa 0,0 mm 0,0 km/h (0 Bft) O-NO 67 14,3 C 0,0 km/h (0 Bft)
22.07.2015 00:05 18,2 C 18,0 C 78 % 1012,4 hPa 0,0 mm 0,0 km/h (0 Bft) O-NO 67 14,3 C 0,0 km/h (0 Bft)
22.07.2015 00:10 18,2 C 18,0 C 78 % 1012,4 hPa 0,0 mm 0,0 km/h (0 Bft) O-NO 67 14,3 C 0,0 km/h (0 Bft)
22.07.2015 00:15 18,1 C 17,9 C 78 % 1012,4 hPa 0,0 mm 0,0 km/h (0 Bft) O-NO 67 14,2 C 0,0 km/h (0 Bft)
22.07.2015 00:20 17,9 C 17,7 C 79 % 1012,4 hPa 0,0 mm 0,0 km/h (0 Bft) O-NO 67 14,2 C 0,0 km/h (0 Bft)
22.07.2015 00:25 17,7 C 17,6 C 78 % 1012,4 hPa 0,0 mm 0,0 km/h (0 Bft) N-NO 22 13,8 C 0,0 km/h (0 Bft)
22.07.2015 00:30 17,6 C 17,4 C 79 % 1012,4 hPa 0,0 mm 0,0 km/h (0 Bft) N-NO 22 13,9 C 0,0 km/h (0 Bft)
22.07.2015 00:35 17,5 C 17,3 C 79 % 1012,4 hPa 0,0 mm 0,0 km/h (0 Bft) N-NO 22 13,8 C 0,0 km/h (0 Bft)
22.07.2015 00:40 17,5 C 17,3 C 79 % 1012,4 hPa 0,0 mm 0,0 km/h (0 Bft) NO 45 13,8 C 0,0 km/h (0 Bft)
22.07.2015 00:45 17,4 C 17,2 C 79 % 1012,4 hPa 0,0 mm 0,0 km/h (0 Bft) N-NO 22 13,7 C 0,0 km/h (0 Bft)
22.07.2015 00:50 17,4 C 17,2 C 80 % 1012,4 hPa 0,0 mm 0,0 km/h (0 Bft) NO 45 13,9 C 0,0 km/h (0 Bft)
22.07.2015 00:55 17,4 C 17,2 C 80 % 1012,4 hPa 0,0 mm 0,0 km/h (0 Bft) O-NO 67 13,9 C 0,0 km/h (0 Bft)
22.07.2015 01:00 17,2 C 17,0 C 80 % 1012,4 hPa 0,0 mm 0,0 km/h (0 Bft) O-NO 67 13,7 C 0,0 km/h (0 Bft)
22.07.2015 01:05 17,1 C 16,9 C 80 % 1012,4 hPa 0,0 mm 0,0 km/h (0 Bft) NO 45 13,6 C 0,0 km/h (0 Bft)
22.07.2015 01:10 17,4 C 17,1 C 80 % 1012,2 hPa 0,0 mm 0,0 km/h (0 Bft) S-SO 157 13,9 C 0,0 km/h (0 Bft)
22.07.2015 01:15 17,5 C 17,2 C 80 % 1012,2 hPa 0,0 mm 0,0 km/h (0 Bft) O-SO 112 14,0 C 0,0 km/h (0 Bft)
22.07.2015 01:20 17,1 C 17,0 C 80 % 1012,2 hPa 0,0 mm 0,0 km/h (0 Bft) O-SO 112 13,6 C 0,0 km/h (0 Bft)
22.07.2015 01:25 17,3 C 17,1 C 80 % 1012,2 hPa 0,0 mm 0,0 km/h (0 Bft) N-NO 22 13,8 C 0,0 km/h (0 Bft)
22.07.2015 01:30 17,1 C 16,9 C 80 % 1012,1 hPa 0,0 mm 0,0 km/h (0 Bft) O-NO 67 13,6 C 0,0 km/h (0 Bft)
22.07.2015 01:35 17,1 C 16,9 C 80 % 1012,1 hPa 0,0 mm 0,0 km/h (0 Bft) O-NO 67 13,6 C 0,0 km/h (0 Bft)
22.07.2015 01:40 16,9 C 16,7 C 81 % 1012,1 hPa 0,0 mm 0,0 km/h (0 Bft) NO 45 13,6 C 0,0 km/h (0 Bft)
22.07.2015 01:45 16,9 C 16,7 C 81 % 1012,1 hPa 0,0 mm 0,0 km/h (0 Bft) N-NO 22 13,6 C 0,0 km/h (0 Bft)
22.07.2015 01:50 16,7 C 16,5 C 81 % 1012,2 hPa 0,0 mm 0,0 km/h (0 Bft) N-NO 22 13,4 C 0,0 km/h (0 Bft)
22.07.2015 01:55 16,7 C 16,5 C 81 % 1012,2 hPa 0,0 mm 0,0 km/h (0 Bft) O 90 13,4 C 0,0 km/h (0 Bft)
22.07.2015 02:00 16,7 C 16,5 C 82 % 1012,2 hPa 0,0 mm 0,0 km/h (0 Bft) NO 45 13,6 C 0,0 km/h (0 Bft)
22.07.2015 02:05 16,8 C 16,6 C 82 % 1012,2 hPa 0,0 mm 0,0 km/h (0 Bft) NO 45 13,7 C 0,0 km/h (0 Bft)
22.07.2015 02:10 16,5 C 16,4 C 81 % 1011,9 hPa 0,0 mm 0,0 km/h (0 Bft) NO 45 13,2 C 0,0 km/h (0 Bft)
22.07.2015 02:15 16,6 C 16,4 C 82 % 1011,9 hPa 0,0 mm 0,0 km/h (0 Bft) O 90 13,5 C 0,0 km/h (0 Bft)
22.07.2015 02:20 16,8 C 16,5 C 83 % 1011,9 hPa 0,0 mm 0,0 km/h (0 Bft) NO 45 13,9 C 0,0 km/h (0 Bft)
22.07.2015 02:25 16,6 C 16,4 C 83 % 1011,9 hPa 0,0 mm 0,0 km/h (0 Bft) NO 45 13,7 C 0,0 km/h (0 Bft)
22.07.2015 02:30 16,4 C 16,2 C 82 % 1011,8 hPa 0,0 mm 0,0 km/h (0 Bft) N 360 13,3 C 0,0 km/h (0 Bft)
22.07.2015 02:35 16,2 C 16,1 C 82 % 1011,8 hPa 0,0 mm 0,0 km/h (0 Bft) O-NO 67 13,1 C 0,0 km/h (0 Bft)
22.07.2015 02:36 16,2 C 16,1 C 82 % 1011,8 hPa 0,0 mm 0,0 km/h (0 Bft) O-NO 67 13,1 C 0,0 km/h (0 Bft)
22.07.2015 02:40 16,2 C 16,1 C 82 % 1011,8 hPa 0,0 mm 0,0 km/h (0 Bft) O-NO 67 13,1 C 0,0 km/h (0 Bft)
22.07.2015 02:45 16,4 C 16,2 C 83 % 1011,8 hPa 0,0 mm 0,0 km/h (0 Bft) W 270 13,5 C 0,0 km/h (0 Bft)
22.07.2015 02:50 16,4 C 16,2 C 83 % 1011,9 hPa 0,0 mm 0,0 km/h (0 Bft) NW 315 13,5 C 0,0 km/h (0 Bft)
22.07.2015 02:55 16,4 C 16,2 C 83 % 1011,9 hPa 0,0 mm 0,0 km/h (0 Bft) NW 315 13,5 C 0,0 km/h (0 Bft)
22.07.2015 03:00 16,2 C 16,0 C 83 % 1011,9 hPa 0,0 mm 0,0 km/h (0 Bft) NW 315 13,3 C 0,0 km/h (0 Bft)
22.07.2015 03:05 16,2 C 16,0 C 83 % 1011,9 hPa 0,0 mm 0,0 km/h (0 Bft) W-NW 292 13,3 C 0,0 km/h (0 Bft)
22.07.2015 03:10 16,2 C 16,0 C 83 % 1011,8 hPa 0,0 mm 0,0 km/h (0 Bft) NO 45 13,3 C 0,0 km/h (0 Bft)
22.07.2015 03:15 16,2 C 16,0 C 83 % 1011,8 hPa 0,0 mm 0,0 km/h (0 Bft) NO 45 13,3 C 0,0 km/h (0 Bft)
22.07.2015 03:20 16,2 C 16,0 C 83 % 1011,8 hPa 0,0 mm 0,0 km/h (0 Bft) O-NO 67 13,3 C 0,0 km/h (0 Bft)
22.07.2015 03:25 16,1 C 15,9 C 83 % 1011,8 hPa 0,0 mm 0,0 km/h (0 Bft) N-NO 22 13,2 C 0,0 km/h (0 Bft)
22.07.2015 03:30 16,1 C 15,9 C 83 % 1011,6 hPa 0,0 mm 0,0 km/h (0 Bft) NO 45 13,2 C 0,0 km/h (0 Bft)
22.07.2015 03:35 16,0 C 15,8 C 84 % 1011,6 hPa 0,0 mm 0,0 km/h (0 Bft) N-NO 22 13,3 C 0,0 km/h (0 Bft)
22.07.2015 03:40 15,7 C 15,6 C 84 % 1011,6 hPa 0,0 mm 0,0 km/h (0 Bft) N-NO 22 13,0 C 0,0 km/h (0 Bft)
22.07.2015 03:45 15,7 C 15,5 C 84 % 1011,6 hPa 0,0 mm 0,0 km/h (0 Bft) NO 45 13,0 C 0,0 km/h (0 Bft)
22.07.2015 03:50 15,7 C 15,5 C 85 % 1011,2 hPa 0,0 mm 0,0 km/h (0 Bft) NO 45 13,2 C 0,0 km/h (0 Bft)
22.07.2015 03:55 15,7 C 15,5 C 85 % 1011,2 hPa 0,0 mm 0,0 km/h (0 Bft) NO 45 13,2 C 0,0 km/h (0 Bft)
22.07.2015 04:00 15,5 C 15,3 C 85 % 1011,2 hPa 0,0 mm 0,0 km/h (0 Bft) SW 225 13,0 C 0,0 km/h (0 Bft)
22.07.2015 04:05 15,9 C 15,6 C 85 % 1011,2 hPa 0,0 mm 0,0 km/h (0 Bft) SO 135 13,4 C 0,0 km/h (0 Bft)
22.07.2015 04:10 16,2 C 15,9 C 82 % 1011,4 hPa 0,0 mm 0,0 km/h (0 Bft) O 90 13,1 C 0,0 km/h (0 Bft)
22.07.2015 04:15 16,3 C 16,0 C 85 % 1011,4 hPa 0,0 mm 0,0 km/h (0 Bft) NO 45 13,8 C 0,0 km/h (0 Bft)
22.07.2015 04:20 15,9 C 15,7 C 85 % 1011,4 hPa 0,0 mm 0,0 km/h (0 Bft) NO 45 13,4 C 0,0 km/h (0 Bft)
22.07.2015 04:25 15,9 C 15,7 C 85 % 1011,4 hPa 0,0 mm 0,0 km/h (0 Bft) NO 45 13,4 C 0,0 km/h (0 Bft)
22.07.2015 04:30 15,8 C 15,6 C 85 % 1011,4 hPa 0,0 mm 0,0 km/h (0 Bft) NO 45 13,3 C 0,0 km/h (0 Bft)
22.07.2015 04:35 15,7 C 15,6 C 85 % 1011,4 hPa 0,0 mm 0,0 km/h (0 Bft) NO 45 13,2 C 0,0 km/h (0 Bft)
22.07.2015 04:40 15,6 C 15,4 C 85 % 1011,4 hPa 0,0 mm 0,0 km/h (0 Bft) NO 45 13,1 C 0,0 km/h (0 Bft)
22.07.2015 04:45 15,6 C 15,4 C 85 % 1011,4 hPa 0,0 mm 0,0 km/h (0 Bft) S-SO 157 13,1 C 0,0 km/h (0 Bft)
22.07.2015 04:50 15,5 C 15,3 C 85 % 1011,2 hPa 0,0 mm 0,0 km/h (0 Bft) NO 45 13,0 C 0,0 km/h (0 Bft)
22.07.2015 04:55 15,5 C 15,3 C 86 % 1011,2 hPa 0,0 mm 0,0 km/h (0 Bft) NO 45 13,2 C 0,0 km/h (0 Bft)
22.07.2015 05:00 15,3 C 15,2 C 86 % 1011,2 hPa 0,0 mm 0,0 km/h (0 Bft) NO 45 13,0 C 0,0 km/h (0 Bft)
22.07.2015 05:05 15,3 C 15,1 C 86 % 1011,2 hPa 0,0 mm 0,0 km/h (0 Bft) O-NO 67 13,0 C 0,0 km/h (0 Bft)
22.07.2015 05:10 15,2 C 15,1 C 86 % 1011,2 hPa 0,0 mm 0,0 km/h (0 Bft) NO 45 12,9 C 0,0 km/h (0 Bft)
22.07.2015 05:15 15,2 C 15,0 C 86 % 1011,2 hPa 0,0 mm 0,0 km/h (0 Bft) NO 45 12,9 C 0,0 km/h (0 Bft)
22.07.2015 05:20 15,0 C 14,9 C 86 % 1011,2 hPa 0,0 mm 0,0 km/h (0 Bft) NO 45 12,7 C 0,0 km/h (0 Bft)
22.07.2015 05:25 15,0 C 14,9 C 86 % 1011,2 hPa 0,0 mm 0,0 km/h (0 Bft) NO 45 12,7 C 0,0 km/h (0 Bft)
22.07.2015 05:30 15,1 C 14,9 C 86 % 1011,1 hPa 0,0 mm 0,0 km/h (0 Bft) O-NO 67 12,8 C 0,0 km/h (0 Bft)
22.07.2015 05:35 15,0 C 14,9 C 86 % 1011,1 hPa 0,0 mm 0,0 km/h (0 Bft) NO 45 12,7 C 0,0 km/h (0 Bft)
22.07.2015 05:40 15,0 C 14,9 C 86 % 1011,1 hPa 0,0 mm 0,0 km/h (0 Bft) O-NO 67 12,7 C 0,0 km/h (0 Bft)
22.07.2015 05:45 15,0 C 14,9 C 86 % 1011,1 hPa 0,0 mm 0,0 km/h (0 Bft) O-NO 67 12,7 C 0,0 km/h (0 Bft)
22.07.2015 05:50 15,0 C 14,9 C 86 % 1011,2 hPa 0,0 mm 0,0 km/h (0 Bft) O-NO 67 12,7 C 0,0 km/h (0 Bft)
22.07.2015 05:55 15,0 C 14,9 C 87 % 1011,2 hPa 0,0 mm 0,0 km/h (0 Bft) O-NO 67 12,9 C 0,0 km/h (0 Bft)
22.07.2015 06:00 15,2 C 15,0 C 87 % 1011,2 hPa 0,0 mm 0,0 km/h (0 Bft) O-NO 67 13,0 C 0,0 km/h (0 Bft)
22.07.2015 06:05 15,2 C 15,1 C 87 % 1011,2 hPa 0,0 mm 0,0 km/h (0 Bft) O-NO 67 13,0 C 0,0 km/h (0 Bft)
22.07.2015 06:10 15,2 C 15,5 C 87 % 1011,3 hPa 0,0 mm 0,0 km/h (0 Bft) N-NW 337 13,0 C 0,0 km/h (0 Bft)
22.07.2015 06:15 15,4 C 16,2 C 85 % 1011,3 hPa 0,0 mm 0,0 km/h (0 Bft) N-NO 22 12,9 C 0,0 km/h (0 Bft)
22.07.2015 06:20 15,5 C 17,3 C 85 % 1011,3 hPa 0,0 mm 0,0 km/h (0 Bft) O-NO 67 13,0 C 0,0 km/h (0 Bft)
22.07.2015 06:25 15,6 C 18,1 C 85 % 1011,3 hPa 0,0 mm 0,0 km/h (0 Bft) O-NO 67 13,1 C 0,0 km/h (0 Bft)
22.07.2015 06:30 16,0 C 19,3 C 84 % 1011,2 hPa 0,0 mm 0,0 km/h (0 Bft) O-NO 67 13,3 C 0,0 km/h (0 Bft)
22.07.2015 06:35 16,4 C 20,1 C 84 % 1011,2 hPa 0,0 mm 0,0 km/h (0 Bft) N-NO 22 13,7 C 0,0 km/h (0 Bft)
22.07.2015 06:40 16,8 C 21,2 C 84 % 1011,2 hPa 0,0 mm 0,0 km/h (0 Bft) N 360 14,1 C 0,0 km/h (0 Bft)
22.07.2015 06:45 16,9 C 22,3 C 83 % 1011,2 hPa 0,0 mm 0,0 km/h (0 Bft) O-SO 112 14,0 C 0,0 km/h (0 Bft)
22.07.2015 06:50 17,4 C 23,5 C 83 % 1011,4 hPa 0,0 mm 0,0 km/h (0 Bft) NO 45 14,5 C 0,0 km/h (0 Bft)
22.07.2015 06:55 18,0 C 24,0 C 83 % 1011,4 hPa 0,0 mm 0,0 km/h (0 Bft) O-NO 67 15,1 C 0,0 km/h (0 Bft)
22.07.2015 07:00 18,6 C 24,9 C 81 % 1011,4 hPa 0,0 mm 0,3 km/h (0 Bft) S-SO 157 15,3 C 0,0 km/h (0 Bft)
22.07.2015 07:05 18,9 C 25,6 C 81 % 1011,4 hPa 0,0 mm 0,3 km/h (0 Bft) NO 45 15,6 C 0,0 km/h (0 Bft)
22.07.2015 07:10 19,7 C 26,1 C 80 % 1010,7 hPa 0,0 mm 0,3 km/h (0 Bft) N-NO 22 16,1 C 0,0 km/h (0 Bft)
22.07.2015 07:15 19,9 C 27,0 C 79 % 1010,7 hPa 0,0 mm 0,0 km/h (0 Bft) NO 45 16,1 C 0,0 km/h (0 Bft)
22.07.2015 07:20 20,3 C 27,5 C 78 % 1010,7 hPa 0,0 mm 0,0 km/h (0 Bft) NO 45 16,3 C 0,0 km/h (0 Bft)
22.07.2015 07:25 20,8 C 28,2 C 77 % 1010,7 hPa 0,0 mm 0,0 km/h (0 Bft) NO 45 16,6 C 0,0 km/h (0 Bft)
22.07.2015 07:30 21,1 C 29,8 C 75 % 1011,5 hPa 0,0 mm 0,0 km/h (0 Bft) NO 45 16,5 C 0,0 km/h (0 Bft)
22.07.2015 07:35 21,2 C 30,6 C 75 % 1011,5 hPa 0,0 mm 0,0 km/h (0 Bft) NO 45 16,6 C 0,0 km/h (0 Bft)
22.07.2015 07:40 21,6 C 30,8 C 75 % 1011,5 hPa 0,0 mm 0,0 km/h (0 Bft) NO 45 17,0 C 0,0 km/h (0 Bft)
22.07.2015 07:45 21,9 C 30,9 C 74 % 1011,5 hPa 0,0 mm 0,0 km/h (0 Bft) NO 45 17,0 C 0,0 km/h (0 Bft)
22.07.2015 07:50 22,5 C 31,5 C 73 % 1011,6 hPa 0,0 mm 0,0 km/h (0 Bft) NO 45 17,4 C 0,0 km/h (0 Bft)
22.07.2015 07:55 22,4 C 31,3 C 72 % 1011,6 hPa 0,0 mm 0,0 km/h (0 Bft) NO 45 17,1 C 0,0 km/h (0 Bft)
22.07.2015 08:00 23,0 C 32,0 C 70 % 1011,6 hPa 0,0 mm 0,0 km/h (0 Bft) NO 45 17,2 C 0,0 km/h (0 Bft)
22.07.2015 08:05 23,1 C 32,2 C 69 % 1011,6 hPa 0,0 mm 0,0 km/h (0 Bft) SO 135 17,1 C 0,0 km/h (0 Bft)
22.07.2015 08:10 23,2 C 33,0 C 70 % 1011,5 hPa 0,0 mm 0,0 km/h (0 Bft) O-NO 67 17,4 C 0,0 km/h (0 Bft)
22.07.2015 08:15 23,4 C 33,1 C 70 % 1011,5 hPa 0,0 mm 0,0 km/h (0 Bft) O-NO 67 17,6 C 0,0 km/h (0 Bft)
22.07.2015 08:20 23,6 C 33,0 C 69 % 1011,5 hPa 0,0 mm 0,0 km/h (0 Bft) O-NO 67 17,6 C 0,0 km/h (0 Bft)
22.07.2015 08:25 23,9 C 33,0 C 69 % 1011,5 hPa 0,0 mm 0,0 km/h (0 Bft) O-NO 67 17,9 C 0,0 km/h (0 Bft)
22.07.2015 08:30 24,5 C 33,4 C 68 % 1011,4 hPa 0,0 mm 0,0 km/h (0 Bft) O-NO 67 18,2 C 0,0 km/h (0 Bft)
22.07.2015 08:35 24,9 C 33,3 C 67 % 1011,4 hPa 0,0 mm 0,0 km/h (0 Bft) O-NO 67 18,3 C 0,0 km/h (0 Bft)
22.07.2015 08:37 25,2 C 33,5 C 66 % 1011,4 hPa 0,0 mm 0,0 km/h (0 Bft) N-NW 337 18,4 C 0,0 km/h (0 Bft)
22.07.2015 08:40 25,2 C 33,5 C 66 % 1011,4 hPa 0,0 mm 0,0 km/h (0 Bft) N-NW 337 18,4 C 0,0 km/h (0 Bft)
22.07.2015 08:45 25,3 C 34,0 C 66 % 1011,4 hPa 0,0 mm 0,0 km/h (0 Bft) N-NO 22 18,5 C 0,0 km/h (0 Bft)
22.07.2015 08:50 25,5 C 34,4 C 65 % 1011,4 hPa 0,0 mm 0,0 km/h (0 Bft) NO 45 18,4 C 0,0 km/h (0 Bft)
22.07.2015 08:55 26,0 C 34,6 C 63 % 1011,4 hPa 0,0 mm 0,0 km/h (0 Bft) NW 315 18,4 C 0,0 km/h (0 Bft)
22.07.2015 09:00 26,7 C 35,2 C 63 % 1011,4 hPa 0,0 mm 0,0 km/h (0 Bft) NO 45 19,1 C 0,0 km/h (0 Bft)
22.07.2015 09:05 26,5 C 35,7 C 62 % 1011,4 hPa 0,0 mm 0,3 km/h (0 Bft) W-NW 292 18,6 C 3,1 km/h (1 Bft)
22.07.2015 09:10 27,0 C 34,9 C 61 % 1011,6 hPa 0,0 mm 2,6 km/h (1 Bft) S-SW 202 18,8 C 7,8 km/h (2 Bft)
22.07.2015 09:15 27,0 C 34,4 C 60 % 1011,6 hPa 0,0 mm 4,1 km/h (1 Bft) N-NW 337 18,6 C 4,4 km/h (1 Bft)
22.07.2015 09:20 27,4 C 34,5 C 60 % 1011,6 hPa 0,0 mm 3,4 km/h (1 Bft) NO 45 18,9 C 5,2 km/h (1 Bft)
22.07.2015 09:25 27,5 C 34,3 C 59 % 1011,6 hPa 0,0 mm 3,9 km/h (1 Bft) N-NW 337 18,8 C 5,4 km/h (1 Bft)
22.07.2015 09:30 27,8 C 34,3 C 59 % 1011,8 hPa 0,0 mm 4,4 km/h (1 Bft) NW 315 19,0 C 10,9 km/h (2 Bft)
22.07.2015 09:35 27,8 C 34,0 C 59 % 1011,8 hPa 0,0 mm 4,7 km/h (1 Bft) W 270 19,0 C 6,2 km/h (2 Bft)
22.07.2015 09:40 27,7 C 33,8 C 58 % 1011,8 hPa 0,0 mm 6,0 km/h (2 Bft) W-NW 292 18,7 C 6,2 km/h (2 Bft)
22.07.2015 09:45 27,8 C 33,7 C 57 % 1011,8 hPa 0,0 mm 6,0 km/h (2 Bft) NW 315 18,5 C 4,9 km/h (1 Bft)
22.07.2015 09:50 28,5 C 34,3 C 56 % 1012,0 hPa 0,0 mm 4,4 km/h (1 Bft) W-NW 292 18,8 C 4,7 km/h (1 Bft)
22.07.2015 09:55 28,4 C 34,3 C 55 % 1012,0 hPa 0,0 mm 3,9 km/h (1 Bft) W-NW 292 18,5 C 2,6 km/h (1 Bft)
22.07.2015 10:00 28,6 C 34,6 C 54 % 1012,0 hPa 0,0 mm 4,7 km/h (1 Bft) N-NO 22 18,4 C 7,0 km/h (2 Bft)
22.07.2015 10:05 28,6 C 34,6 C 54 % 1012,0 hPa 0,0 mm 4,1 km/h (1 Bft) W-NW 292 18,4 C 4,1 km/h (1 Bft)
22.07.2015 10:10 28,6 C 35,0 C 54 % 1011,8 hPa 0,0 mm 4,4 km/h (1 Bft) N-NW 337 18,4 C 0,0 km/h (0 Bft)
22.07.2015 10:15 28,9 C 35,5 C 53 % 1011,8 hPa 0,0 mm 2,8 km/h (1 Bft) NW 315 18,3 C 4,1 km/h (1 Bft)
22.07.2015 10:20 29,6 C 36,4 C 52 % 1011,8 hPa 0,0 mm 1,0 km/h (0 Bft) W-NW 292 18,7 C 3,9 km/h (1 Bft)
22.07.2015 10:25 29,7 C 36,6 C 51 % 1011,8 hPa 0,0 mm 1,6 km/h (1 Bft) W-SW 247 18,5 C 0,0 km/h (0 Bft)
22.07.2015 10:30 29,6 C 36,8 C 52 % 1011,9 hPa 0,0 mm 1,0 km/h (0 Bft) SW 225 18,7 C 0,0 km/h (0 Bft)
22.07.2015 10:35 29,4 C 36,9 C 52 % 1011,9 hPa 0,0 mm 0,5 km/h (0 Bft) W-SW 247 18,5 C 0,0 km/h (0 Bft)
22.07.2015 10:40 29,4 C 36,6 C 52 % 1011,9 hPa 0,0 mm 1,0 km/h (0 Bft) O-NO 67 18,5 C 0,0 km/h (0 Bft)
22.07.2015 10:45 29,6 C 36,6 C 51 % 1011,9 hPa 0,0 mm 1,3 km/h (1 Bft) O-NO 67 18,4 C 4,7 km/h (1 Bft)
22.07.2015 10:50 29,6 C 36,6 C 50 % 1012,0 hPa 0,0 mm 0,5 km/h (0 Bft) O 90 18,1 C 3,1 km/h (1 Bft)
22.07.2015 10:55 29,9 C 37,0 C 50 % 1012,0 hPa 0,0 mm 0,5 km/h (0 Bft) S 180 18,3 C 0,0 km/h (0 Bft)
22.07.2015 11:00 29,7 C 36,8 C 51 % 1012,0 hPa 0,0 mm 2,3 km/h (1 Bft) NW 315 18,5 C 5,2 km/h (1 Bft)
22.07.2015 11:05 29,6 C 36,3 C 51 % 1012,0 hPa 0,0 mm 3,6 km/h (1 Bft) NO 45 18,4 C 4,4 km/h (1 Bft)
22.07.2015 11:10 29,6 C 35,6 C 52 % 1011,9 hPa 0,0 mm 4,7 km/h (1 Bft) O-NO 67 18,7 C 5,7 km/h (1 Bft)
22.07.2015 11:15 29,5 C 35,4 C 52 % 1011,9 hPa 0,0 mm 4,4 km/h (1 Bft) N-NW 337 18,6 C 4,1 km/h (1 Bft)
22.07.2015 11:20 29,7 C 35,7 C 51 % 1011,9 hPa 0,0 mm 4,1 km/h (1 Bft) N-NO 22 18,5 C 12,2 km/h (2 Bft)
22.07.2015 11:25 29,6 C 35,3 C 51 % 1011,9 hPa 0,0 mm 4,9 km/h (1 Bft) N-NO 22 18,4 C 6,2 km/h (2 Bft)
22.07.2015 11:30 30,0 C 35,5 C 51 % 1011,9 hPa 0,0 mm 5,2 km/h (1 Bft) W 270 18,7 C 4,9 km/h (1 Bft)
22.07.2015 11:35 30,2 C 35,7 C 50 % 1011,9 hPa 0,0 mm 5,2 km/h (1 Bft) N 360 18,6 C 6,5 km/h (2 Bft)
22.07.2015 11:40 30,2 C 35,9 C 51 % 1011,9 hPa 0,0 mm 3,6 km/h (1 Bft) N-NO 22 18,9 C 0,0 km/h (0 Bft)
22.07.2015 11:45 30,5 C 36,4 C 50 % 1011,9 hPa 0,0 mm 3,4 km/h (1 Bft) S-SW 202 18,9 C 9,8 km/h (2 Bft)
22.07.2015 11:50 30,4 C 35,9 C 49 % 1012,0 hPa 0,0 mm 4,1 km/h (1 Bft) SO 135 18,5 C 11,4 km/h (2 Bft)
22.07.2015 11:55 30,2 C 35,8 C 50 % 1012,0 hPa 0,0 mm 4,9 km/h (1 Bft) NO 45 18,6 C 15,3 km/h (3 Bft)
22.07.2015 12:00 30,3 C 35,8 C 50 % 1012,0 hPa 0,0 mm 4,4 km/h (1 Bft) NO 45 18,7 C 8,0 km/h (2 Bft)
22.07.2015 12:05 30,4 C 35,8 C 51 % 1012,0 hPa 0,0 mm 5,2 km/h (1 Bft) N-NO 22 19,1 C 11,9 km/h (2 Bft)
22.07.2015 12:10 30,3 C 35,5 C 51 % 1011,8 hPa 0,0 mm 6,2 km/h (2 Bft) N-NW 337 19,0 C 7,8 km/h (2 Bft)
22.07.2015 12:15 30,3 C 35,4 C 50 % 1011,8 hPa 0,0 mm 6,5 km/h (2 Bft) O-NO 67 18,7 C 6,2 km/h (2 Bft)
22.07.2015 12:20 30,3 C 35,3 C 51 % 1011,8 hPa 0,0 mm 6,2 km/h (2 Bft) W-NW 292 19,0 C 16,1 km/h (3 Bft)
22.07.2015 12:25 30,5 C 35,1 C 50 % 1011,8 hPa 0,0 mm 7,0 km/h (2 Bft) O-NO 67 18,9 C 7,8 km/h (2 Bft)
22.07.2015 12:30 30,3 C 35,0 C 51 % 1011,8 hPa 0,0 mm 6,7 km/h (2 Bft) O 90 19,0 C 4,1 km/h (1 Bft)
22.07.2015 12:35 30,5 C 35,1 C 50 % 1011,8 hPa 0,0 mm 6,0 km/h (2 Bft) O-NO 67 18,9 C 8,8 km/h (2 Bft)
22.07.2015 12:40 30,6 C 35,2 C 50 % 1011,8 hPa 0,0 mm 6,5 km/h (2 Bft) NO 45 19,0 C 10,4 km/h (2 Bft)
22.07.2015 12:45 30,8 C 35,5 C 49 % 1011,8 hPa 0,0 mm 6,0 km/h (2 Bft) O 90 18,8 C 5,4 km/h (1 Bft)
22.07.2015 12:50 30,5 C 35,6 C 49 % 1011,6 hPa 0,0 mm 5,7 km/h (1 Bft) N-NO 22 18,6 C 12,2 km/h (2 Bft)
22.07.2015 12:55 30,5 C 35,3 C 49 % 1011,6 hPa 0,0 mm 6,0 km/h (2 Bft) N-NW 337 18,6 C 3,9 km/h (1 Bft)
22.07.2015 13:00 30,9 C 35,5 C 48 % 1011,6 hPa 0,0 mm 5,7 km/h (1 Bft) NO 45 18,6 C 0,0 km/h (0 Bft)
22.07.2015 13:05 30,7 C 35,4 C 48 % 1011,6 hPa 0,0 mm 4,4 km/h (1 Bft) W-NW 292 18,4 C 0,0 km/h (0 Bft)
22.07.2015 13:10 30,9 C 35,9 C 48 % 1011,1 hPa 0,0 mm 5,2 km/h (1 Bft) NW 315 18,6 C 4,1 km/h (1 Bft)
22.07.2015 13:15 31,2 C 35,8 C 47 % 1011,1 hPa 0,0 mm 6,2 km/h (2 Bft) NO 45 18,5 C 7,8 km/h (2 Bft)
22.07.2015 13:20 31,0 C 35,7 C 47 % 1011,1 hPa 0,0 mm 7,3 km/h (2 Bft) N-NO 22 18,3 C 17,9 km/h (3 Bft)
22.07.2015 13:25 31,0 C 35,5 C 47 % 1011,1 hPa 0,0 mm 6,5 km/h (2 Bft) NO 45 18,3 C 6,2 km/h (2 Bft)
22.07.2015 13:30 31,3 C 35,6 C 48 % 1011,1 hPa 0,0 mm 5,2 km/h (1 Bft) NO 45 18,9 C 11,4 km/h (2 Bft)
22.07.2015 13:35 31,5 C 35,1 C 48 % 1011,1 hPa 0,0 mm 4,4 km/h (1 Bft) N-NO 22 19,1 C 3,4 km/h (1 Bft)
22.07.2015 13:40 31,2 C 34,3 C 48 % 1011,1 hPa 0,0 mm 5,4 km/h (1 Bft) NW 315 18,9 C 8,3 km/h (2 Bft)
22.07.2015 13:45 31,0 C 33,7 C 48 % 1011,1 hPa 0,0 mm 5,4 km/h (1 Bft) N-NW 337 18,7 C 4,1 km/h (1 Bft)
22.07.2015 13:50 31,1 C 34,3 C 48 % 1010,7 hPa 0,0 mm 4,4 km/h (1 Bft) NW 315 18,8 C 0,0 km/h (0 Bft)
22.07.2015 13:55 30,9 C 34,0 C 48 % 1010,7 hPa 0,0 mm 5,4 km/h (1 Bft) NW 315 18,6 C 9,1 km/h (2 Bft)
22.07.2015 14:00 30,2 C 32,4 C 49 % 1010,7 hPa 0,0 mm 7,5 km/h (2 Bft) W-SW 247 18,3 C 9,8 km/h (2 Bft)
22.07.2015 14:05 29,8 C 31,4 C 49 % 1010,7 hPa 0,0 mm 7,8 km/h (2 Bft) NW 315 17,9 C 10,9 km/h (2 Bft)
22.07.2015 14:10 29,3 C 30,3 C 50 % 1010,6 hPa 0,0 mm 6,7 km/h (2 Bft) W 270 17,8 C 7,0 km/h (2 Bft)
22.07.2015 14:15 28,9 C 29,7 C 50 % 1010,6 hPa 0,0 mm 6,7 km/h (2 Bft) W-SW 247 17,4 C 7,0 km/h (2 Bft)
22.07.2015 14:20 28,5 C 29,1 C 50 % 1010,6 hPa 0,0 mm 6,2 km/h (2 Bft) W-NW 292 17,0 C 6,7 km/h (2 Bft)
22.07.2015 14:25 28,2 C 28,8 C 51 % 1010,6 hPa 0,0 mm 3,9 km/h (1 Bft) SW 225 17,1 C 0,0 km/h (0 Bft)
22.07.2015 14:30 27,7 C 28,1 C 53 % 1010,4 hPa 0,0 mm 0,8 km/h (0 Bft) NW 315 17,2 C 2,8 km/h (1 Bft)
22.07.2015 14:35 27,3 C 27,7 C 54 % 1010,4 hPa 0,0 mm 0,3 km/h (0 Bft) S-SW 202 17,2 C 0,0 km/h (0 Bft)
22.07.2015 14:38 26,5 C 26,8 C 60 % 1010,4 hPa 0,0 mm 1,6 km/h (1 Bft) S-SO 157 18,1 C 6,0 km/h (2 Bft)
22.07.2015 14:40 26,5 C 26,8 C 60 % 1010,4 hPa 0,0 mm 1,6 km/h (1 Bft) S-SO 157 18,1 C 6,0 km/h (2 Bft)
22.07.2015 14:45 26,1 C 26,2 C 62 % 1010,4 hPa 0,0 mm 3,4 km/h (1 Bft) S-SO 157 18,2 C 3,4 km/h (1 Bft)
22.07.2015 14:50 25,8 C 26,0 C 63 % 1010,1 hPa 0,0 mm 3,6 km/h (1 Bft) S 180 18,2 C 4,7 km/h (1 Bft)
22.07.2015 14:55 25,6 C 26,0 C 65 % 1010,1 hPa 0,0 mm 2,8 km/h (1 Bft) S-SO 157 18,5 C 4,7 km/h (1 Bft)
22.07.2015 15:00 25,4 C 26,2 C 68 % 1010,1 hPa 0,0 mm 2,8 km/h (1 Bft) S 180 19,1 C 3,9 km/h (1 Bft)
22.07.2015 15:05 25,3 C 26,2 C 68 % 1010,1 hPa 0,0 mm 3,4 km/h (1 Bft) S-SW 202 19,0 C 11,1 km/h (2 Bft)
22.07.2015 15:10 24,9 C 25,8 C 68 % 1010,2 hPa 0,0 mm 7,5 km/h (2 Bft) S-SW 202 18,6 C 16,3 km/h (3 Bft)
22.07.2015 15:15 24,6 C 25,4 C 68 % 1010,2 hPa 0,0 mm 10,1 km/h (2 Bft) S 180 18,3 C 7,3 km/h (2 Bft)
22.07.2015 15:20 24,3 C 24,9 C 71 % 1010,2 hPa 0,0 mm 6,2 km/h (2 Bft) SW 225 18,7 C 6,5 km/h (2 Bft)
22.07.2015 15:25 24,0 C 24,1 C 72 % 1010,2 hPa 0,0 mm 4,1 km/h (1 Bft) NO 45 18,6 C 0,0 km/h (0 Bft)
22.07.2015 15:30 23,6 C 23,4 C 73 % 1009,7 hPa 0,0 mm 1,8 km/h (1 Bft) O 90 18,5 C 0,0 km/h (0 Bft)
22.07.2015 15:35 23,5 C 23,2 C 73 % 1009,7 hPa 0,0 mm 0,0 km/h (0 Bft) NW 315 18,4 C 0,0 km/h (0 Bft)
22.07.2015 15:40 23,1 C 22,8 C 74 % 1009,7 hPa 0,0 mm 1,0 km/h (0 Bft) SO 135 18,2 C 3,9 km/h (1 Bft)
22.07.2015 15:45 22,9 C 22,6 C 76 % 1009,7 hPa 0,0 mm 1,3 km/h (1 Bft) SO 135 18,4 C 0,0 km/h (0 Bft)
22.07.2015 15:50 22,8 C 22,6 C 76 % 1010,4 hPa 0,0 mm 0,8 km/h (0 Bft) S-SW 202 18,3 C 4,1 km/h (1 Bft)
22.07.2015 15:55 22,7 C 22,5 C 76 % 1010,4 hPa 0,0 mm 0,5 km/h (0 Bft) O 90 18,2 C 0,0 km/h (0 Bft)
22.07.2015 16:00 22,5 C 22,3 C 77 % 1010,4 hPa 0,0 mm 1,6 km/h (1 Bft) SO 135 18,3 C 2,8 km/h (1 Bft)
22.07.2015 16:05 22,3 C 22,1 C 77 % 1010,4 hPa 0,0 mm 1,3 km/h (1 Bft) N-NW 337 18,1 C 5,2 km/h (1 Bft)
22.07.2015 16:10 21,9 C 21,6 C 78 % 1010,0 hPa 0,0 mm 0,5 km/h (0 Bft) O-NO 67 17,9 C 0,0 km/h (0 Bft)
22.07.2015 16:15 21,8 C 21,4 C 79 % 1010,0 hPa 0,0 mm 1,6 km/h (1 Bft) S 180 18,0 C 12,4 km/h (3 Bft)
22.07.2015 16:20 21,5 C 21,1 C 79 % 1010,0 hPa 0,0 mm 2,3 km/h (1 Bft) N-NO 22 17,7 C 2,6 km/h (1 Bft)
22.07.2015 16:25 21,3 C 20,9 C 80 % 1010,0 hPa 0,0 mm 2,8 km/h (1 Bft) NW 315 17,7 C 7,8 km/h (2 Bft)
22.07.2015 16:30 21,0 C 20,6 C 81 % 1010,3 hPa 0,0 mm 2,8 km/h (1 Bft) W-NW 292 17,6 C 2,6 km/h (1 Bft)
22.07.2015 16:35 20,8 C 20,4 C 80 % 1010,3 hPa 0,0 mm 3,9 km/h (1 Bft) N-NO 22 17,2 C 6,5 km/h (2 Bft)
22.07.2015 16:40 20,5 C 20,1 C 80 % 1010,3 hPa 0,0 mm 2,8 km/h (1 Bft) N-NW 337 16,9 C 2,8 km/h (1 Bft)
22.07.2015 16:45 20,3 C 19,9 C 80 % 1010,3 hPa 0,0 mm 2,1 km/h (1 Bft) S 180 16,7 C 7,0 km/h (2 Bft)
22.07.2015 16:50 20,3 C 19,8 C 79 % 1011,4 hPa 0,0 mm 4,1 km/h (1 Bft) O-SO 112 16,5 C 2,8 km/h (1 Bft)
22.07.2015 16:55 20,1 C 19,7 C 79 % 1011,4 hPa 0,0 mm 4,7 km/h (1 Bft) W 270 16,3 C 0,0 km/h (0 Bft)
22.07.2015 17:00 20,2 C 19,7 C 80 % 1011,4 hPa 0,0 mm 3,4 km/h (1 Bft) W 270 16,6 C 0,0 km/h (0 Bft)
22.07.2015 17:05 20,2 C 19,8 C 80 % 1011,4 hPa 0,0 mm 4,1 km/h (1 Bft) SW 225 16,6 C 7,5 km/h (2 Bft)
22.07.2015 17:10 20,1 C 19,6 C 79 % 1010,7 hPa 0,7 mm 3,9 km/h (1 Bft) O-SO 112 16,3 C 3,6 km/h (1 Bft)
22.07.2015 17:15 19,9 C 19,4 C 79 % 1010,7 hPa 0,0 mm 3,9 km/h (1 Bft) W 270 16,1 C 9,8 km/h (2 Bft)
22.07.2015 17:20 19,5 C 19,0 C 78 % 1010,7 hPa 0,0 mm 3,9 km/h (1 Bft) S 180 15,6 C 7,0 km/h (2 Bft)
22.07.2015 17:25 19,3 C 18,9 C 77 % 1010,7 hPa 0,0 mm 3,6 km/h (1 Bft) N-NW 337 15,2 C 3,4 km/h (1 Bft)
22.07.2015 17:30 19,2 C 18,8 C 78 % 1009,6 hPa 0,0 mm 2,3 km/h (1 Bft) SO 135 15,3 C 0,0 km/h (0 Bft)
22.07.2015 17:35 19,2 C 18,8 C 78 % 1009,6 hPa 0,0 mm 1,0 km/h (0 Bft) W-SW 247 15,3 C 4,1 km/h (1 Bft)
22.07.2015 17:40 19,1 C 18,7 C 78 % 1009,6 hPa 0,0 mm 1,8 km/h (1 Bft) W-NW 292 15,2 C 6,2 km/h (2 Bft)
22.07.2015 17:45 19,4 C 19,1 C 76 % 1009,6 hPa 0,0 mm 4,1 km/h (1 Bft) W 270 15,1 C 6,2 km/h (2 Bft)
22.07.2015 17:50 19,7 C 19,4 C 76 % 1009,6 hPa 0,0 mm 7,5 km/h (2 Bft) W 270 15,3 C 23,0 km/h (4 Bft)
22.07.2015 17:55 19,4 C 19,2 C 76 % 1009,6 hPa 0,0 mm 6,0 km/h (2 Bft) S-SO 157 15,1 C 0,0 km/h (0 Bft)
22.07.2015 18:00 19,2 C 19,0 C 77 % 1009,6 hPa 0,0 mm 2,6 km/h (1 Bft) W 270 15,1 C 5,7 km/h (1 Bft)
22.07.2015 18:05 19,1 C 18,9 C 77 % 1009,6 hPa 0,0 mm 1,6 km/h (1 Bft) N-NW 337 15,0 C 9,3 km/h (2 Bft)
22.07.2015 18:10 19,1 C 18,8 C 77 % 1009,6 hPa 0,0 mm 2,1 km/h (1 Bft) N-NO 22 15,0 C 3,6 km/h (1 Bft)
22.07.2015 18:15 19,1 C 18,8 C 77 % 1009,6 hPa 0,0 mm 2,6 km/h (1 Bft) W-SW 247 15,0 C 2,8 km/h (1 Bft)
22.07.2015 18:20 18,9 C 18,6 C 77 % 1009,6 hPa 0,0 mm 2,1 km/h (1 Bft) W 270 14,8 C 7,3 km/h (2 Bft)
22.07.2015 18:25 18,9 C 18,5 C 77 % 1009,6 hPa 0,0 mm 1,3 km/h (1 Bft) SW 225 14,8 C 0,0 km/h (0 Bft)
22.07.2015 18:30 18,9 C 18,5 C 78 % 1009,0 hPa 0,0 mm 1,0 km/h (0 Bft) N-NO 22 15,0 C 4,4 km/h (1 Bft)
22.07.2015 18:35 18,9 C 18,5 C 76 % 1009,0 hPa 0,0 mm 0,8 km/h (0 Bft) NW 315 14,6 C 0,0 km/h (0 Bft)
22.07.2015 18:40 19,0 C 18,7 C 77 % 1009,0 hPa 0,0 mm 0,3 km/h (0 Bft) N 360 14,9 C 0,0 km/h (0 Bft)
22.07.2015 18:45 19,0 C 18,9 C 77 % 1009,0 hPa 0,0 mm 0,0 km/h (0 Bft) N-NW 337 14,9 C 0,0 km/h (0 Bft)
22.07.2015 18:50 19,5 C 19,6 C 75 % 1008,8 hPa 0,0 mm 4,4 km/h (1 Bft) N-NO 22 14,9 C 4,4 km/h (1 Bft)
22.07.2015 18:55 19,8 C 19,9 C 75 % 1008,8 hPa 0,0 mm 7,0 km/h (2 Bft) O-NO 67 15,2 C 8,8 km/h (2 Bft)
22.07.2015 19:00 20,0 C 20,3 C 73 % 1008,8 hPa 0,0 mm 6,2 km/h (2 Bft) N-NO 22 15,0 C 4,7 km/h (1 Bft)
22.07.2015 19:05 20,1 C 20,6 C 73 % 1008,8 hPa 0,0 mm 3,9 km/h (1 Bft) O-NO 67 15,1 C 0,0 km/h (0 Bft)
22.07.2015 19:10 20,1 C 20,7 C 73 % 1009,1 hPa 0,0 mm 1,3 km/h (1 Bft) N-NO 22 15,1 C 0,0 km/h (0 Bft)
22.07.2015 19:15 20,1 C 20,6 C 73 % 1009,1 hPa 0,0 mm 1,8 km/h (1 Bft) O-NO 67 15,1 C 3,6 km/h (1 Bft)
22.07.2015 19:20 20,1 C 20,6 C 74 % 1009,1 hPa 0,0 mm 1,3 km/h (1 Bft) W 270 15,3 C 0,0 km/h (0 Bft)
22.07.2015 19:25 20,1 C 20,6 C 74 % 1009,1 hPa 0,0 mm 1,0 km/h (0 Bft) SW 225 15,3 C 0,0 km/h (0 Bft)
22.07.2015 19:30 20,2 C 20,6 C 73 % 1009,5 hPa 0,0 mm 3,6 km/h (1 Bft) S-SW 202 15,2 C 16,6 km/h (3 Bft)
22.07.2015 19:35 20,5 C 20,6 C 72 % 1009,5 hPa 0,0 mm 5,7 km/h (1 Bft) O-SO 112 15,3 C 5,7 km/h (1 Bft)
22.07.2015 19:40 20,1 C 20,7 C 72 % 1009,5 hPa 0,0 mm 4,1 km/h (1 Bft) O 90 14,9 C 0,0 km/h (0 Bft)
22.07.2015 19:45 20,0 C 20,6 C 72 % 1009,5 hPa 0,0 mm 2,1 km/h (1 Bft) W-SW 247 14,8 C 7,8 km/h (2 Bft)
22.07.2015 19:50 20,7 C 20,8 C 70 % 1010,1 hPa 0,0 mm 5,2 km/h (1 Bft) W-SW 247 15,0 C 9,1 km/h (2 Bft)
22.07.2015 19:55 20,8 C 21,0 C 69 % 1010,1 hPa 0,0 mm 6,7 km/h (2 Bft) W-SW 247 14,9 C 10,6 km/h (2 Bft)
22.07.2015 20:00 20,8 C 21,0 C 69 % 1010,1 hPa 0,0 mm 5,4 km/h (1 Bft) SW 225 14,9 C 12,2 km/h (2 Bft)
22.07.2015 20:05 20,9 C 21,1 C 69 % 1010,1 hPa 0,0 mm 5,7 km/h (1 Bft) SW 225 15,0 C 2,8 km/h (1 Bft)
22.07.2015 20:10 21,0 C 21,1 C 68 % 1010,4 hPa 0,0 mm 4,1 km/h (1 Bft) S 180 14,9 C 5,7 km/h (1 Bft)
22.07.2015 20:15 21,0 C 21,1 C 69 % 1010,4 hPa 0,0 mm 3,1 km/h (1 Bft) S 180 15,1 C 0,0 km/h (0 Bft)
22.07.2015 20:20 21,1 C 21,2 C 69 % 1010,4 hPa 0,0 mm 3,6 km/h (1 Bft) S 180 15,2 C 3,4 km/h (1 Bft)
22.07.2015 20:25 21,1 C 21,2 C 69 % 1010,4 hPa 0,0 mm 2,8 km/h (1 Bft) S-SW 202 15,2 C 0,0 km/h (0 Bft)
22.07.2015 20:30 21,3 C 21,3 C 69 % 1010,4 hPa 0,0 mm 3,4 km/h (1 Bft) W 270 15,4 C 3,9 km/h (1 Bft)
22.07.2015 20:35 21,3 C 21,3 C 69 % 1010,4 hPa 0,0 mm 4,4 km/h (1 Bft) S-SO 157 15,4 C 11,1 km/h (2 Bft)
22.07.2015 20:39 21,4 C 21,4 C 68 % 1010,4 hPa 0,0 mm 4,9 km/h (1 Bft) S 180 15,2 C 5,4 km/h (1 Bft)
22.07.2015 20:45 21,3 C 21,3 C 68 % 1010,4 hPa 0,0 mm 5,2 km/h (1 Bft) W-SW 247 15,1 C 8,8 km/h (2 Bft)
22.07.2015 20:50 21,4 C 21,4 C 68 % 1010,6 hPa 0,0 mm 4,1 km/h (1 Bft) SO 135 15,2 C 5,2 km/h (1 Bft)
22.07.2015 20:55 21,4 C 21,4 C 67 % 1010,6 hPa 0,0 mm 4,7 km/h (1 Bft) SW 225 15,0 C 7,8 km/h (2 Bft)
22.07.2015 21:00 21,4 C 21,5 C 67 % 1010,6 hPa 0,0 mm 4,9 km/h (1 Bft) W 270 15,0 C 5,7 km/h (1 Bft)
22.07.2015 21:05 21,4 C 21,5 C 67 % 1010,6 hPa 0,0 mm 4,1 km/h (1 Bft) W 270 15,0 C 0,0 km/h (0 Bft)
22.07.2015 21:10 21,3 C 21,4 C 66 % 1010,6 hPa 0,0 mm 2,6 km/h (1 Bft) O-SO 112 14,7 C 0,0 km/h (0 Bft)
22.07.2015 21:15 21,4 C 21,4 C 65 % 1010,6 hPa 0,0 mm 2,1 km/h (1 Bft) W 270 14,5 C 3,1 km/h (1 Bft)
22.07.2015 21:20 21,1 C 21,1 C 64 % 1010,6 hPa 0,0 mm 2,1 km/h (1 Bft) S-SW 202 14,0 C 3,4 km/h (1 Bft)
22.07.2015 21:25 21,0 C 21,0 C 64 % 1010,6 hPa 0,0 mm 2,3 km/h (1 Bft) SW 225 13,9 C 2,6 km/h (1 Bft)
22.07.2015 21:30 21,1 C 21,1 C 63 % 1010,8 hPa 0,0 mm 3,1 km/h (1 Bft) S-SO 157 13,8 C 0,0 km/h (0 Bft)
22.07.2015 21:35 20,8 C 20,8 C 64 % 1010,8 hPa 0,0 mm 2,6 km/h (1 Bft) W-SW 247 13,7 C 2,8 km/h (1 Bft)
22.07.2015 21:40 21,1 C 21,0 C 63 % 1010,8 hPa 0,0 mm 2,8 km/h (1 Bft) S 180 13,8 C 6,2 km/h (2 Bft)
22.07.2015 21:45 20,9 C 20,9 C 63 % 1010,8 hPa 0,0 mm 3,6 km/h (1 Bft) SO 135 13,6 C 0,0 km/h (0 Bft)
22.07.2015 21:50 20,5 C 20,5 C 65 % 1011,0 hPa 0,0 mm 2,1 km/h (1 Bft) SO 135 13,7 C 0,0 km/h (0 Bft)
22.07.2015 21:55 20,4 C 20,4 C 65 % 1011,0 hPa 0,0 mm 1,0 km/h (0 Bft) SW 225 13,6 C 14,0 km/h (3 Bft)
22.07.2015 22:00 20,6 C 20,5 C 65 % 1011,0 hPa 0,0 mm 4,1 km/h (1 Bft) SW 225 13,8 C 0,0 km/h (0 Bft)
22.07.2015 22:05 20,6 C 20,5 C 65 % 1011,0 hPa 0,0 mm 5,4 km/h (1 Bft) S 180 13,8 C 8,3 km/h (2 Bft)
22.07.2015 22:10 20,8 C 20,7 C 65 % 1011,1 hPa 0,0 mm 3,6 km/h (1 Bft) S 180 14,0 C 0,0 km/h (0 Bft)
22.07.2015 22:15 20,7 C 20,7 C 65 % 1011,1 hPa 0,0 mm 3,6 km/h (1 Bft) SW 225 13,9 C 9,8 km/h (2 Bft)
22.07.2015 22:20 20,6 C 20,6 C 65 % 1011,1 hPa 0,0 mm 2,1 km/h (1 Bft) S 180 13,8 C 4,1 km/h (1 Bft)
22.07.2015 22:25 20,7 C 20,6 C 65 % 1011,1 hPa 0,0 mm 2,8 km/h (1 Bft) W-SW 247 13,9 C 4,9 km/h (1 Bft)
22.07.2015 22:30 20,6 C 20,5 C 65 % 1011,4 hPa 0,0 mm 4,4 km/h (1 Bft) S-SW 202 13,8 C 0,0 km/h (0 Bft)
22.07.2015 22:35 20,4 C 20,4 C 66 % 1011,4 hPa 0,0 mm 4,1 km/h (1 Bft) W 270 13,8 C 6,7 km/h (2 Bft)
22.07.2015 22:40 20,1 C 20,0 C 68 % 1011,4 hPa 0,0 mm 3,4 km/h (1 Bft) W-SW 247 14,0 C 0,0 km/h (0 Bft)
22.07.2015 22:45 19,9 C 19,8 C 69 % 1011,4 hPa 0,0 mm 3,9 km/h (1 Bft) S-SO 157 14,0 C 2,8 km/h (1 Bft)
22.07.2015 22:50 19,6 C 19,5 C 71 % 1011,7 hPa 0,0 mm 3,6 km/h (1 Bft) W-SW 247 14,2 C 3,4 km/h (1 Bft)
22.07.2015 22:55 19,5 C 19,4 C 72 % 1011,7 hPa 0,0 mm 4,4 km/h (1 Bft) S-SO 157 14,3 C 9,1 km/h (2 Bft)
22.07.2015 23:00 19,6 C 19,5 C 71 % 1011,7 hPa 0,0 mm 6,0 km/h (2 Bft) S 180 14,2 C 23,3 km/h (4 Bft)
22.07.2015 23:05 19,7 C 19,6 C 71 % 1011,7 hPa 0,0 mm 6,7 km/h (2 Bft) SW 225 14,3 C 7,8 km/h (2 Bft)
22.07.2015 23:10 19,6 C 19,5 C 71 % 1011,7 hPa 0,0 mm 7,0 km/h (2 Bft) O-SO 112 14,2 C 4,4 km/h (1 Bft)
22.07.2015 23:15 19,4 C 19,4 C 72 % 1011,7 hPa 0,0 mm 5,7 km/h (1 Bft) SW 225 14,2 C 11,7 km/h (2 Bft)
22.07.2015 23:20 19,2 C 19,2 C 72 % 1011,7 hPa 0,0 mm 2,3 km/h (1 Bft) N 360 14,0 C 0,0 km/h (0 Bft)
22.07.2015 23:25 19,1 C 19,1 C 73 % 1011,7 hPa 0,0 mm 1,6 km/h (1 Bft) NO 45 14,1 C 0,0 km/h (0 Bft)
22.07.2015 23:30 19,0 C 19,0 C 73 % 1011,6 hPa 0,0 mm 0,0 km/h (0 Bft) NW 315 14,0 C 5,2 km/h (1 Bft)
22.07.2015 23:35 19,0 C 19,0 C 73 % 1011,6 hPa 0,0 mm 0,3 km/h (0 Bft) NO 45 14,0 C 0,0 km/h (0 Bft)
22.07.2015 23:40 19,0 C 19,0 C 73 % 1011,6 hPa 0,0 mm 0,3 km/h (0 Bft) O-SO 112 14,0 C 0,0 km/h (0 Bft)
22.07.2015 23:45 18,9 C 18,9 C 72 % 1011,6 hPa 0,0 mm 0,0 km/h (0 Bft) N-NO 22 13,7 C 0,0 km/h (0 Bft)
22.07.2015 23:50 18,9 C 18,9 C 73 % 1011,2 hPa 0,0 mm 0,0 km/h (0 Bft) O-SO 112 13,9 C 0,0 km/h (0 Bft)
22.07.2015 23:55 18,9 C 18,9 C 73 % 1011,2 hPa 0,0 mm 0,0 km/h (0 Bft) NO 45 13,9 C 0,0 km/h (0 Bft)
_ Min-Zeit 05:55 05:55 13:25 19:05 - 23:55 - - 05:50 23:55
Minimum _ 15,0 C 14,9 C 47 % 1008,8 hPa - 0,0 km/h (0 Bft) - - 12,7 C 0,0 km/h (0 Bft)
_ Max-Zeit 13:35 10:55 06:10 01:05 17:10 15:15 - - 13:35 23:00
Maximum _ 31,5 C 37,0 C 87 % 1012,4 hPa 0,7 mm 10,1 km/h
S (2 Bft)
- - 19,1 C 23,3 km/h
S (4 Bft)
Durchschnitt _ 21,7 C 23,7 C 70 % 1011,1 hPa #0,7 mm 2,3 km/h (1 Bft) W - 15,8 C 3,1 km/h (1 Bft)